Home   Weather   Aqtobe   Past weeks

Flag for Kazakhstan Past Weather in Aqtobe, Kazakhstan — Yesterday and Last 2 Weeks

Now
16 °F

Light snow. Mostly cloudy.


Feels Like: 7 °F
Forecast: 17 / 25 °F
Wind: 6 mph from Southwest

Location: Aktjubinsk

Current Time: Dec 4, 2016 at 11:27:44 pm

Latest Report: Dec 4, 2016 at 11:00 pm


Visibility: N/A

Pressure: 30.04 "Hg

Humidity: 93%

Dew Point: 14 °F

Location of AqtobeLocation

Past Weather in Aqtobe — Graph

°F

Aqtobe Temperature Yesterday

Maximum temperature yesterday: 28 °F (at 4:30 pm)
Minimum temperature yesterday: 18 °F (at 6:30 am)
Average temperature yesterday: 23 °F

High & Low Weather Summary for the Past Weeks

 TemperatureHumidityPressure
High37 °F (Nov 28, 3:00 pm)100% (Nov 25, 6:00 am)31.31 "Hg (Nov 25, 6:00 am)
Low-9 °F (Nov 20, 4:00 am)26% (Nov 23, 1:30 pm)29.39 "Hg (Dec 3, 2:00 pm)
Average20 °F74%30.30 "Hg
* Reported Nov 19 10:00 pm — Dec 4 10:00 pm, Aqtobe, Weather by CustomWeather, © 2016

Note: Actual official high and low records may vary slightly from our data, if they occured in-between our weather recording intervals... More about our weather records

Advertising

Aqtobe Weather History for the Previous 24 Hours

Scroll right to see more
 ConditionsComfort  
Time TempWeatherWind HumidityBarometerVisibility
10:00 pm
Sun, Dec 4
14 °FPassing clouds.8 mph85%30.01 "HgN/A
9:30 pm14 °FPassing clouds.10 mph85%29.98 "HgN/A
9:00 pm14 °FPassing clouds.10 mph85%29.98 "HgN/A
8:30 pm14 °FPassing clouds.13 mph92%29.98 "HgN/A
8:00 pm16 °FPassing clouds.10 mph86%29.98 "HgN/A
7:30 pm18 °FPassing clouds.10 mph86%29.95 "HgN/A
7:00 pm18 °FPassing clouds.15 mph86%29.92 "HgN/A
6:30 pm18 °FPassing clouds.15 mph86%29.92 "HgN/A
6:00 pm18 °FPassing clouds.15 mph86%29.89 "HgN/A
5:30 pm18 °FPassing clouds.15 mph86%29.89 "HgN/A
5:00 pm18 °FPartly sunny.20 mph86%29.86 "HgN/A
4:30 pm18 °FPartly sunny.17 mph86%29.86 "HgN/A
4:00 pm16 °FScattered clouds.20 mph86%29.83 "HgN/A
3:30 pm16 °FScattered clouds.22 mph86%29.80 "HgN/A
3:00 pm16 °FScattered clouds.24 mph86%29.80 "HgN/A
2:30 pm18 °FScattered clouds.22 mph79%29.77 "HgN/A
2:00 pm18 °FScattered clouds.22 mph79%29.77 "HgN/A
1:30 pm18 °FScattered clouds.29 mph79%29.74 "HgN/A
1:00 pm18 °FScattered clouds.24 mph79%29.74 "HgN/A
12:30 pm16 °FScattered clouds.22 mph86%29.74 "HgN/A
12:00 pm16 °FBroken clouds.24 mph86%29.74 "Hg6 mi
11:30 am16 °FSnow flurries. Broken clouds.24 mph86%29.71 "Hg5 mi
11:00 am16 °FSnow showers. Broken clouds.24 mph86%29.71 "Hg2 mi
10:30 am16 °FHeavy snow. Ice fog.24 mph86%29.71 "Hg1 mi
10:00 am16 °FSnow flurries. Broken clouds.22 mph86%29.68 "Hg1 mi
9:30 am16 °FSnow flurries. Broken clouds.22 mph86%29.68 "Hg1 mi
9:00 am16 °FScattered clouds.22 mph86%29.68 "Hg2 mi
8:30 am16 °FSnow flurries. Mostly cloudy.22 mph86%29.65 "Hg2 mi
8:00 am16 °FSnow flurries. Mostly cloudy.22 mph86%29.65 "Hg2 mi
7:30 am16 °FSnow flurries. Mostly cloudy.26 mph86%29.62 "Hg1 mi
7:00 am18 °FSnow flurries. Passing clouds.24 mph86%29.62 "Hg2 mi
6:30 am18 °FSnow flurries. Passing clouds.24 mph86%29.59 "Hg2 mi
6:00 am18 °FSnow showers. Mostly cloudy.20 mph86%29.59 "Hg1 mi
5:30 am18 °FSnow showers. Mostly cloudy.22 mph86%29.56 "Hg1 mi
5:00 am18 °FSnow showers. Mostly cloudy.22 mph86%29.56 "Hg1 mi
4:30 am18 °FSnow showers. Mostly cloudy.22 mph86%29.53 "Hg1 mi
4:00 am18 °FSnow showers. Mostly cloudy.22 mph86%29.53 "Hg1 mi
3:30 am18 °FSnow showers. Mostly cloudy.24 mph86%29.53 "Hg1 mi
3:00 am18 °FSnow showers. Mostly cloudy.22 mph86%29.50 "Hg1 mi
2:30 am18 °FSnow showers. Mostly cloudy.20 mph86%29.50 "Hg1 mi
2:00 am18 °FSnow flurries. Passing clouds.22 mph86%29.50 "Hg4 mi
1:30 am19 °FSnow showers. Mostly cloudy.20 mph86%29.50 "Hg2 mi
1:00 am19 °FSnow showers. Mostly cloudy.20 mph86%29.50 "Hg1 mi
12:30 am21 °FSnow flurries. Mostly cloudy.20 mph80%29.50 "Hg4 mi
12:00 am21 °FSnow flurries. Mostly cloudy.24 mph86%29.47 "Hg2 mi
11:30 pm
Sat, Dec 3
21 °FSnow showers. Mostly cloudy.24 mph93%29.47 "Hg1 mi
11:00 pm23 °FSnow showers. Mostly cloudy.20 mph93%29.47 "Hg1 mi
Weather by CustomWeather, © 2016

See weather overviewHow to use our weather pages